Pagina principale
METAR-TAF:

METAR-TAF

Aeroporti :

Monte Malanotte

Prato Nevoso, Italia

latitudine: 44-15N, longitudine: 007-48E, altezza: 1741 m

Osservazione

Il bollettino è stato emesso 10 ore e 20 minuti fa, alle 17:55 UTC
Vento 3 kt da nord
Temperature 33°C
Umidità 67%
Pressione 1024 hPa
Visibilità 10 km o più
nessuna nube inferiore a 1500 m e nessun cumulonembo

METAR: LIMY 261755Z 01003KT CAVOK 33/26 Q1024 RMK SKC VAL FOSCHIA SKC SUP VIS MIN 9999

Ora: 06:15 (04:15 UTC)


TAF: mancante

Osservazioni e previsioni meteorologiche di più di 4000 aeroporti (messaggi METAR e TAF).

Le stazioni disponibili sono rappresentate dai dischi gialli e rossi sulla carta.

Puntare il mouse per vedere il nome della stazione.

Clicca sopra per visualizzare le osservazioni e previsioni meteorologiche.

Per cambiare la mappa : fare clic sui pulsanti verdi con una croce nera per ingrandire, il pulsante verde con un trattino per diminuire, o sulla freccia verde per le mappe adiacenti.


METAR-TAF: